Home > Weather > Carouge > Past weeks

Flag for Switzerland Past Weather in Carouge, Geneva, Switzerland — Yesterday and Last 2 Weeks

Now
45 °F

Passing clouds.


Feels Like: 45 °F
Forecast: 51 / 76 °F
Wind: 1 mph from Northwest

Location: Geneve-Cointrin

Current Time: May 25, 2016 at 3:35:13 AM

Latest Report: May 25, 2016 at 2:00 AM


Visibility: 37 mi

Pressure: 29.97 "Hg

Humidity: 91%

Dew Point: 43 °F

Location of CarougeLocation

Past Weather in Carouge — Graph

°F

Carouge Temperature Yesterday

Maximum temperature yesterday: 61 °F (at 4:00 PM)
Minimum temperature yesterday: 47 °F (at 5:00 AM)
Average temperature yesterday: 53 °F

High & Low Weather Summary for the Past Weeks

 TemperatureHumidityPressure
High79 °F (May 21, 5:00 PM)96% (May 12, 7:00 AM)30.26 "Hg (May 12, 7:00 AM)
Low36 °F (May 16, 6:00 AM)31% (May 21, 5:00 PM)29.54 "Hg (May 11, 7:00 PM)
Average55 °F72%29.93 "Hg
* Reported May 10 2:00 AM — May 25 2:00 AM, Carouge, Weather by CustomWeather, © 2016

Note: Actual official high and low records may vary slightly from our data, if they occured in-between our weather recording intervals... More about our weather records

Advertising

Carouge Weather History for the Previous 24 Hours

Scroll right to see more
 ConditionsComfort  
Time TempWeatherWind HumidityBarometerVisibility
2:00 AM
Wed, May 25
45 °FPassing clouds.1 mph91%29.97 "Hg37 mi
1:00 AM46 °FCool.1 mph90%29.97 "HgN/A
12:00 AM48 °FCool.1 mph85%29.97 "HgN/A
11:00 PM
Tue, May 24
50 °FPassing clouds.1 mph82%29.95 "Hg37 mi
10:00 PM51 °FCool.2 mph80%29.94 "HgN/A
9:00 PM54 °FCool.2 mph71%29.93 "HgN/A
8:00 PM58 °FPartly sunny.5 mph57%29.92 "Hg37 mi
7:00 PM59 °FRefreshingly cool.7 mph53%29.92 "HgN/A
6:00 PM60 °FRefreshingly cool.8 mph49%29.93 "HgN/A
5:00 PM60 °FScattered clouds.9 mph46%29.94 "Hg37 mi
4:00 PM61 °FRefreshingly cool.10 mph48%29.95 "HgN/A
3:00 PM58 °FCool.8 mph60%29.98 "HgN/A
2:00 PM60 °FPartly sunny.7 mph54%29.98 "Hg31 mi
1:00 PM60 °FRefreshingly cool.7 mph54%29.98 "HgN/A
12:00 PM58 °FRefreshingly cool.5 mph60%30.01 "HgN/A
11:00 AM56 °FPartly sunny.6 mph67%30.03 "Hg16 mi
10:00 AM53 °FCool.5 mph75%30.03 "HgN/A
9:00 AM48 °FCool.3 mph81%30.06 "HgN/A
8:00 AM48 °FCool.3 mph83%30.08 "HgN/A
7:00 AM47 °FCool.3 mph85%30.09 "HgN/A
6:00 AM47 °FCool.2 mph89%30.11 "HgN/A
5:00 AM47 °FLow clouds.2 mph88%30.10 "Hg28 mi
4:00 AM47 °FCool.5 mph84%30.11 "HgN/A
3:00 AM47 °FCool.3 mph84%30.11 "HgN/A
Weather by CustomWeather, © 2016

See weather overviewHow to use our weather pages